Tracking 19644 objects as of 24-Apr-2019
HD Live streaming from Space Station
objects crossing your sky now

COSMOS 917 DEB

Track COSMOS 917 DEB now!


NORAD ID: 35504
Int'l Code: 1977-047R
Perigee: 5,331.7 km
Apogee: 34,995.1 km
Inclination: 70.7 °
Period: 716.9 minutes
Semi major axis: 26534 km
RCS: 0.003 m2 (small)
Launch date: June 16, 1977
Source: Commonwealth of Independent States (former USSR) (CIS)
Launch site: PLESETSK MISSILE AND SPACE COMPLEX (PKMTR)

Note: This is SATELLITE DEBRIS
aabbcc
Your satellite tracking list
Your tracking list is empty




NASA's NSSDC Master Catalog

Two Line Element Set (TLE):
1 35504U 77047R   19114.22838633 -.00000372  00000-0  00000+0 0  9995
2 35504  70.6618 188.6015 5589600 249.1796  44.3493  2.00857768 80476
Source of the keplerian elements: AFSPC